Hourly Data Report for September 24, 2021

ATIKOKAN (AUT)
ONTARIO
Current Station Operator: ECCC - MSC

48°45'40.000" N
91°37'41.000" W
389.30 m
6020LPQ
71747
WCH

Download Data

Hourly Data (September 2021)
Hourly Data Report for September 24, 2021
TIME
LST
Temp Definition
°C
Dew Point Definition
°C
Rel Hum Definition
%
Precip. Amount Definition
mm

Wind Dir Definition
10's deg

Wind Spd Definition
km/h
Visibility Definition
km
Stn Press Definition
kPa
Hmdx Definition


Wind Chill Definition


Weather Definition


00:00 7.4 7.1 98 0.0   0   96.50     LegendNANA
01:00 7.7 7.4 98 0.0   0   96.43     LegendNANA
02:00 7.9 7.6 98 0.0   0   96.36     LegendNANA
03:00 7.4 7.1 98 0.0   0   96.30     LegendNANA
04:00 7.5 7.3 98 0.0 0 1   96.29     LegendNANA
05:00 8.2 8.0 99 0.0 0 1   96.28     LegendNANA
06:00 9.2 8.9 98 0.3 27 3   96.27     LegendNANA
07:00 10.1 9.5 96 0.0 23 2   96.28     LegendNANA
08:00 11.0 9.9 93 0.0 26 5   96.36     LegendNANA
09:00 11.9 9.3 84 0.2 31 8   96.36     LegendNANA
10:00 11.6 8.2 80 0.0 28 7   96.41     LegendNANA
11:00 11.1 9.3 89 0.5 18 4   96.43     LegendNANA
12:00 11.4 8.3 81 0.1 30 5   96.42     LegendNANA
13:00 11.4 6.6 72 0.0 3 4   96.35     LegendNANA
14:00 12.0 5.0 62 0.0 32 6   96.33     LegendNANA
15:00 12.0 4.7 61 0.0 31 4   96.31     LegendNANA
16:00 12.9 5.3 60 0.0 31 7   96.31     LegendNANA
17:00 12.7 5.2 61 0.0 30 3   96.31     LegendNANA
18:00 7.8 6.0 88 0.0 28 2   96.28     LegendNANA
19:00 6.8 6.1 95 0.0 24 3   96.29     LegendNANA
20:00 4.9 4.2 96 0.0   0   96.29     LegendNANA
21:00 5.6 5.4 98 0.0 0 1   96.28     LegendNANA
22:00 6.2 5.9 98 0.0   0   96.25     LegendNANA
23:00 6.8 4.7 86 0.0 27 3   96.25     LegendNANA

Notes on Data Quality.

Legend

  • E = Estimated
  • M = Missing
  • NA = Not Available*
  • [empty] = Indicates an unobserved value
Date modified: